SCP
0 0 0 0 0 -0 0 0 -0 0 0 -0 0 0 -0 0 0 0 -0 -0 -0 -0 -0 -0 -1 -1 -1 -0 -0 -0 -0 -0 -0 -0 -0 -0 -0 -0 -0 -0 -0 -0 -0 -0 -0 -0 -0 0 0
0 0 0 0 0 0 0 -0 0 0 -0 0 0 0 -0 -0 0 -0 -0 -0 -0 -0 -0 -0 -1 -1 -1 -0 -0 -0 -0 -0 0 0 -0 -0 -0 -0 -0 0 -0 -0 -0 -0 0 0 0 0 0
0 0 0 0 0 0 -0 -0 0 0 0 0 0 0 0 0 0 0 -0 -0 -0 -0 0 -0 -1 -1 -1 -0 -0 -0 -0 -0 0 0 -0 -0 -0 0 0 0 -0 0 -0 -0 0 -0 0 0 0
0 0 0 0 0 0 -0 0 -0 -0 0 0 0 1 0 0 0 -0 -0 -0 -0 0 0 0 -0 -0 -0 -0 -0 -0 -0 -0 0 -0 -0 -0 0 0 0 0 0 0 0 0 0 -0 0 0 0
0 0 0 0 -0 -0 -0 0 0 0 0 0 0 0 0 0 0 -0 -0 -0 -0 0 0 0 0 -0 -0 -0 -0 -0 -0 0 -0 -0 -0 0 0 0 0 0 0 0 0 0 -0 -0 0 0 0
0 0 0 0 -0 -0 -0 -0 0 0 0 0 0 0 0 0 0 -0 -0 -0 -0 -0 0 0 0 0 0 -0 -0 0 0 0 0 0 0 0 0 0 -0 -0 -0 -0 -0 -0 -0 -0 -0 0 0
0 0 0 0 0 0 -0 -0 0 0 0 0 0 0 0 -0 -0 0 -0 -1 -0 -0 0 0 0 0 0 -0 0 0 0 0 0 0 0 -0 -0 -0 -0 -0 -0 -0 -0 -0 -0 -0 0 0 0
0 0 0 0 0 0 0 -0 0 0 0 0 0 0 0 0 0 0 -0 -0 -0 0 0 0 0 0 0 0 -0 0 0 0 0 0 0 -0 -0 -0 -0 -0 -0 -0 -0 -0 -0 -0 0 0 -0
-0 0 0 0 0 0 0 0 0 0 0 0 1 0 0 -0 0 0 0 0 -0 0 -0 -0 -0 0 0 0 0 0 0 0 0 0 0 -0 -0 -0 -0 -0 -0 -0 -0 -0 -0 -0 -0 0 0
0 0 -0 0 0 0 0 0 0 0 0 1 0 -0 -0 0 0 0 0 0 -0 -0 -0 -0 -0 -0 0 0 0 0 0 0 0 0 -0 -0 -0 -0 -0 -0 0 -0 -0 -0 -0 -0 -0 0 0
-0 -0 0 0 0 -0 0 0 0 0 0 0 0 -0 -0 0 0 0 0 0 -0 -0 -0 -0 -0 -0 -0 0 0 0 0 0 0 0 -0 -0 -0 -0 -0 0 0 0 -0 -0 -0 -0 -0 -0 0
0 0 0 0 0 0 0 0 0 0 0 0 0 0 0 0 0 0 0 0 0 -0 -0 -0 0 0 0 0 0 0 0 0 0 -0 0 -0 -0 -0 0 0 0 0 0 -0 -0 0 -0 0 0
0 -0 0 0 0 0 0 0 0 0 0 0 0 0 0 0 0 -0 0 0 0 0 0 -0 -0 0 0 0 0 0 0 0 0 0 -0 -0 -0 0 0 0 0 0 0 -0 -0 0 0 0 0
-0 0 -0 0 0 0 0 0 0 0 0 0 0 0 0 0 0 0 0 0 0 0 0 -0 0 0 -0 -0 0 0 0 0 0 0 0 0 -0 0 0 0 0 0 0 0 -0 0 0 0 0
0 0 0 0 0 0 0 0 0 0 0 0 0 1 1 1 1 0 0 1 0 0 0 -0 -0 -0 -0 -0 -0 0 0 0 0 0 0 -0 0 0 0 0 0 0 0 0 0 0 0 0 0
0 0 0 0 0 0 0 0 0 0 0 0 0 1 1 1 1 1 1 1 1 1 0 0 0 0 0 0 0 0 0 0 0 0 0 0 -0 0 0 0 0 0 0 0 0 0 0 0 0
-0 0 0 -0 -0 0 0 0 0 0 0 1 1 1 1 1 1 1 1 2 1 1 1 0 0 0 0 1 1 1 0 0 0 0 1 0 0 0 0 0 0 0 0 0 0 0 0 0 1
-0 -0 0 0 0 0 0 0 0 0 0 1 0 0 0 0 0 1 0 1 1 1 1 2 2 0 0 1 1 1 1 1 0 0 1 1 1 1 0 0 0 0 0 0 0 0 0 0 0
0 0 0 -0 0 0 0 0 0 0 0 0 0 0 0 0 0 0 0 1 1 1 1 1 2 2 2 1 1 1 1 1 1 0 0 1 1 1 1 0 1 1 1 0 0 1 1 1 0
0 0 0 0 0 0 0 0 0 0 0 0 0 0 0 0 0 0 0 1 0 0 0 0 1 1 2 2 1 1 1 1 0 1 1 0 1 1 1 0 0 0 1 1 1 1 1 1 0
0 0 0 0 0 0 0 0 0 0 0 0 0 0 0 0 0 0 0 0 0 0 0 0 0 0 0 0 1 1 1 1 1 0 0 0 0 1 2 2 1 0 1 1 1 1 1 1 0
0 0 0 0 0 0 0 0 0 0 0 0 0 0 0 0 0 0 0 0 0 0 0 0 0 0 0 0 0 0 0 0 0 0 0 0 0 0 0 1 2 1 1 1 2 2 1 1 1
0 0 0 0 0 0 0 0 0 0 0 0 0 0 0 0 0 0 0 0 0 0 0 0 0 0 0 0 0 0 0 0 0 0 0 0 0 0 0 -0 0 0 0 1 1 1 2 2 2
0 0 0 0 0 0 -0 0 0 0 0 0 0 0 0 0 0 0 0 0 0 0 0 0 0 0 0 0 0 0 0 0 0 0 0 0 0 0 -0 0 -0 0 0 0 0 0 1 1 2
0 0 0 0 0 0 0 0 0 0 0 0 0 0 0 0 0 0 0 0 0 0 0 0 0 0 0 0 0 0 0 0 0 0 0 0 0 0 0 0 0 -0 0 0 0 0 0 0 1
0 0 0 0 0 0 -0 0 0 0 0 0 0 0 0 0 0 0 0 0 0 0 0 0 0 0 0 0 0 0 0 0 0 0 0 0 0 0 0 0 0 0 0 0 0 0 0 0 0
0 0 0 0 0 0 0 0 0 0 0 0 0 0 0 0 0 0 0 0 0 0 0 0 0 0 0 0 0 0 0 0 0 0 0 0 0 0 0 0 0 0 0 0 0 0 0 0 0
0 0 0 0 0 0 0 0 0 0 0 0 0 0 0 0 0 0 0 0 0 0 0 0 0 0 0 0 0 0 0 0 0 0 0 0 0 0 0 0 0 0 0 0 0 0 0 0 0
0 0 0 0 0 0 0 0 0 0 0 0 0 0 0 0 0 0 0 0 0 0 0 0 0 0 0 0 0 0 0 0 0 0 0 0 0 0 0 0 0 0 0 0 0 0 0 0 0
0 0 0 0 0 0 0 0 0 0 0 0 0 0 0 0 0 0 0 0 0 0 0 0 0 0 0 0 0 0 0 0 0 0 0 0 0 0 0 0 0 0 0 0 0 0 0 0 0
Wind_Speed_500mb
26 24 18 8 3 5 11 14 18 27 15 49 39 39 33 25 10 12 41 42 37 43 55 51 50 52 54 53 47 40 34 29 31 37 37 38 39 36 36 36 35 36 36 34 33 31 31 33 37
26 19 7 9 4 8 15 35 37 8 38 10 35 56 46 27 42 52 45 36 29 43 56 53 53 55 56 52 47 40 34 29 32 37 37 38 35 35 35 35 35 37 36 34 32 33 34 39 44
23 17 10 8 8 20 9 23 33 43 57 8 11 35 20 26 47 46 42 41 30 52 56 54 55 55 55 52 46 40 33 29 33 36 38 36 34 33 33 33 32 35 31 28 27 30 34 41 47
22 14 14 3 22 40 31 22 33 43 52 15 36 18 40 29 50 51 51 37 30 53 54 53 54 54 55 52 46 39 32 28 34 35 35 35 35 33 32 30 29 31 29 30 31 32 36 41 44
29 10 6 10 23 37 39 41 30 27 21 25 45 13 20 25 48 61 49 33 25 52 53 52 51 52 53 51 45 39 32 29 35 36 34 33 32 30 28 27 28 30 31 31 31 33 37 38 38
12 10 1 15 31 37 34 33 31 34 42 32 37 28 19 43 60 54 41 25 23 44 51 49 49 48 49 50 47 41 35 34 36 34 34 33 30 28 26 26 28 30 29 29 27 28 31 30 29
15 2 11 18 25 34 34 35 25 19 16 25 64 19 45 42 49 50 42 44 36 33 41 46 48 46 44 47 48 43 37 38 38 34 32 31 29 27 25 25 27 28 28 25 23 22 25 26 23
20 3 13 17 25 29 31 12 36 48 24 37 47 26 27 52 49 53 54 49 44 36 30 45 49 49 48 47 49 46 42 41 40 34 32 31 28 25 23 22 24 25 25 23 21 19 19 23 24
45 4 11 22 22 33 40 9 30 47 41 27 26 76 68 50 51 56 55 56 44 36 21 47 49 49 48 47 48 47 45 46 43 37 33 30 27 23 22 20 22 22 22 21 18 16 15 16 20
25 9 17 26 21 21 22 29 19 14 41 61 57 57 66 61 59 63 57 64 50 45 36 38 47 48 48 49 50 49 49 50 46 40 35 31 27 22 17 17 20 22 22 20 17 17 17 20 20
35 14 23 46 43 43 20 24 29 24 12 39 63 67 68 61 56 55 50 64 58 46 39 35 42 46 43 48 50 52 51 51 46 41 37 32 30 21 17 17 14 18 23 21 19 20 19 16 16
17 45 50 50 54 16 15 20 16 17 30 22 44 64 58 50 49 51 51 57 67 61 45 37 36 34 39 33 43 50 54 54 50 45 41 38 36 27 22 9 5 18 22 21 18 20 16 16 15
17 22 56 64 56 17 19 15 10 30 40 33 37 47 49 47 47 45 31 20 45 65 51 49 47 37 48 38 32 41 50 52 50 45 44 45 42 32 32 18 19 7 16 21 19 19 18 13 18
32 48 48 48 36 22 8 11 8 33 28 23 15 6 22 48 46 47 41 14 38 50 54 59 54 45 53 54 44 33 40 47 45 43 41 45 46 31 42 28 33 27 20 13 13 14 19 25 17
33 9 12 11 36 16 26 9 7 44 37 26 17 25 33 37 35 38 35 10 16 45 55 54 61 49 60 55 54 45 30 44 38 40 36 34 51 38 39 37 45 29 31 37 35 36 35 31 26
11 8 8 17 20 17 22 13 11 42 44 30 46 48 43 55 52 39 34 26 22 15 42 52 60 52 58 49 44 50 36 38 44 45 45 42 43 53 50 48 42 33 34 30 32 29 28 28 20
10 14 20 22 26 14 14 14 9 36 50 52 56 51 40 35 36 34 28 26 22 22 33 46 42 53 57 59 40 43 42 40 47 51 59 58 54 55 54 53 50 45 37 37 20 34 34 40 17
14 18 18 17 10 13 16 16 15 43 57 51 48 41 33 25 19 8 12 19 21 27 32 34 35 26 41 50 56 63 53 54 46 51 62 58 58 62 58 53 53 52 42 40 34 33 26 25 39
13 18 10 24 14 10 16 20 17 37 50 48 50 42 37 26 16 3 7 13 19 35 38 31 32 38 26 41 56 61 69 61 65 53 52 46 59 54 60 56 49 63 50 38 50 42 37 45 44
16 12 15 19 14 12 19 19 18 18 30 53 50 40 35 27 20 14 6 15 20 26 35 46 35 38 38 36 34 59 57 67 69 57 56 52 46 60 66 63 59 51 69 45 50 56 56 47 47
5 12 16 8 14 6 3 12 16 19 47 53 53 45 33 26 20 8 7 5 18 23 25 37 34 40 42 40 39 38 55 62 66 71 63 62 66 62 79 79 72 60 60 66 50 59 63 60 56
6 17 18 18 13 1 8 5 10 29 27 29 44 43 37 27 20 8 5 11 11 16 19 21 24 35 41 48 49 48 41 47 56 62 66 63 53 60 37 73 72 59 54 73 68 63 72 70 67
5 16 12 11 14 10 19 6 12 32 25 28 40 53 49 33 16 8 12 17 15 9 4 10 18 15 23 32 35 37 44 54 50 46 58 61 63 51 53 57 58 58 62 57 73 68 78 84 83
6 7 13 10 6 6 26 14 13 29 36 32 48 56 55 43 26 14 15 17 17 11 7 6 2 3 7 11 14 17 19 29 38 43 41 58 64 76 92 51 49 52 47 45 49 78 76 79 78
10 7 5 8 2 16 16 11 22 29 38 37 44 54 58 49 39 33 20 8 13 15 8 6 7 7 9 8 8 9 10 12 18 24 29 34 57 61 83 85 84 84 91 85 97 79 81 82 79
3 14 10 6 6 12 13 6 9 30 39 47 44 50 61 49 32 22 18 12 12 12 9 10 7 9 10 10 11 11 11 11 10 16 18 29 41 50 78 70 69 82 79 63 70 88 85 90 87
5 5 9 4 9 9 5 10 13 23 22 30 36 62 65 51 31 18 19 17 13 8 3 7 11 10 9 10 9 9 10 11 14 17 19 19 25 43 49 44 45 51 55 79 81 86 77 81 81
10 6 9 7 3 11 8 8 13 18 21 24 32 50 60 48 34 24 24 21 20 18 12 5 2 3 7 9 14 16 18 18 18 22 25 27 27 27 31 39 47 46 46 48 57 63 65 71 76
2 3 8 8 7 5 5 7 19 31 28 28 33 58 57 50 43 35 21 12 13 10 6 8 5 2 2 5 9 15 18 18 18 19 23 26 27 31 30 27 29 37 45 47 51 54 56 61 65
18 10 10 9 12 2 3 10 10 19 21 39 41 59 51 46 43 34 26 14 12 9 8 9 9 5 6 1 5 8 11 12 14 14 11 13 21 25 27 28 27 25 27 32 35 36 43 46 53
Wind_Direction_500mb
250 253 265 285 26 213 251 177 34 313 280 228 56 84 85 54 82 138 157 177 161 158 155 159 158 156 157 156 155 151 147 139 137 136 130 127 127 126 126 125 123 124 121 118 114 113 120 126 119
241 233 254 262 175 286 282 113 173 41 279 74 64 89 70 73 105 134 150 169 160 161 158 158 158 157 156 156 155 153 149 142 143 143 136 135 133 132 131 129 128 127 122 119 114 109 109 120 120
206 177 274 181 204 234 246 126 133 123 257 291 78 65 70 115 123 141 167 161 159 161 158 158 158 159 158 157 157 154 152 146 149 146 143 141 139 137 137 134 133 130 130 127 117 110 107 119 126
187 190 260 271 268 276 267 288 183 178 248 98 98 51 83 136 136 154 160 160 162 159 159 159 161 162 161 160 158 156 155 155 154 148 147 145 144 143 143 142 138 137 131 127 119 110 109 120 130
176 242 214 233 249 256 263 258 165 133 116 119 105 131 87 100 140 154 163 172 175 158 161 161 163 165 165 163 160 160 160 161 156 150 149 148 149 149 150 149 147 140 135 130 121 111 112 120 128
196 225 274 229 255 258 261 224 146 128 131 132 105 122 130 130 143 155 152 166 147 148 163 164 164 168 170 168 165 166 166 165 160 157 153 151 149 148 148 149 154 149 144 137 128 121 117 122 132
214 180 234 258 267 286 279 262 152 158 147 130 141 119 122 130 151 152 148 169 159 154 162 168 167 169 171 171 170 170 171 170 166 163 160 157 151 150 149 151 156 158 152 147 138 129 125 124 127
233 213 272 254 256 270 278 11 124 119 106 129 118 131 135 139 150 154 160 167 168 167 174 177 172 173 172 171 174 174 174 174 170 170 168 165 158 155 151 155 162 168 165 159 154 143 141 131 128
221 257 245 257 261 266 307 313 142 126 135 146 117 138 146 145 157 156 158 165 170 168 177 181 178 177 176 177 176 178 178 177 175 176 175 171 167 162 159 163 170 176 177 172 173 163 161 149 135
210 192 244 252 273 312 345 16 60 128 109 108 120 137 145 152 159 162 164 164 177 172 171 185 184 181 180 182 182 183 182 181 180 180 180 176 171 169 175 178 185 184 191 189 186 177 182 175 162
226 220 240 254 273 306 338 354 357 93 78 128 139 147 151 156 160 166 174 177 185 188 181 173 183 187 184 187 186 186 186 185 186 186 184 180 170 157 186 183 188 205 200 200 197 191 191 186 198
201 228 243 269 273 306 320 327 327 22 71 100 144 154 154 161 171 180 185 186 182 187 185 184 170 177 186 193 194 191 190 190 191 193 188 181 185 177 209 204 158 222 213 208 200 198 185 182 217
212 232 231 246 258 260 293 307 309 84 93 102 105 149 170 172 177 187 181 161 177 180 181 188 180 176 187 201 201 206 198 198 198 201 196 189 186 187 206 209 225 226 198 212 185 177 193 230 248
242 224 231 244 254 253 211 275 265 105 100 98 108 142 190 183 179 180 191 146 172 173 183 187 185 182 191 200 211 209 218 211 209 211 209 196 193 196 197 226 224 233 230 202 199 213 223 210 211
269 276 225 249 244 221 196 247 272 131 115 107 148 88 105 100 150 157 166 181 180 181 180 193 197 188 192 202 215 217 221 213 209 213 210 206 196 194 209 211 209 238 234 246 238 231 222 224 231
277 302 253 253 242 230 134 238 133 131 121 81 86 96 93 93 110 131 141 154 169 168 193 199 193 192 189 200 213 214 211 213 215 227 227 226 218 220 213 213 214 216 222 230 230 218 205 190 187
260 222 234 248 204 188 130 137 121 119 120 91 86 82 90 114 118 120 137 148 167 172 174 184 198 198 191 196 199 209 212 214 221 226 231 236 234 224 229 226 214 215 220 232 240 223 213 186 224
234 228 247 208 149 156 142 133 141 121 109 107 96 92 81 76 69 126 145 162 176 172 174 180 184 198 209 212 218 221 216 213 222 234 233 236 235 230 232 239 235 217 224 226 229 226 232 211 205
281 336 277 127 129 123 181 142 147 130 122 115 106 99 92 78 70 338 221 218 208 210 210 199 203 214 202 220 225 227 229 226 227 236 237 248 240 237 237 242 248 225 223 222 230 222 196 208 215
330 335 19 119 144 138 116 145 156 140 137 114 111 108 101 93 71 29 8 222 221 224 219 223 218 222 235 244 232 231 229 230 229 240 237 241 257 246 244 244 242 238 227 224 231 226 224 221 218
317 27 14 29 352 66 90 132 140 84 104 110 117 118 112 108 99 56 38 142 203 221 224 228 226 222 228 234 237 224 237 241 239 242 240 241 244 239 240 248 242 238 239 231 232 234 228 227 230
52 23 11 1 31 236 66 275 165 131 120 116 121 128 128 119 127 153 111 111 176 205 216 223 234 228 237 240 244 246 245 246 249 251 248 253 250 243 235 234 240 241 246 230 232 229 233 233 228
11 28 7 345 321 352 305 112 234 142 150 152 150 148 145 143 150 141 98 96 94 97 133 216 231 237 243 247 251 254 252 254 260 263 256 257 249 256 304 300 198 222 225 242 241 243 235 235 237
46 26 323 288 220 323 245 179 207 177 169 156 155 154 155 154 150 114 89 103 104 92 89 81 87 261 274 279 275 276 274 268 277 282 286 274 268 249 277 282 266 232 235 245 252 253 246 243 240
134 115 325 334 328 230 265 228 214 182 166 157 157 155 154 150 150 139 154 170 128 122 93 41 46 58 44 12 354 331 315 301 287 283 278 281 237 244 250 255 254 254 259 268 281 269 255 251 249
341 158 165 247 279 275 337 342 268 124 123 127 133 144 145 147 151 166 186 158 111 101 96 92 71 35 24 23 26 18 2 348 329 311 286 260 252 255 251 258 263 257 261 252 239 256 253 251 250
358 346 214 72 308 351 181 10 55 111 125 153 176 135 145 153 163 178 189 166 152 139 76 16 8 31 36 25 19 15 1 339 327 318 313 302 280 266 265 268 258 251 251 236 251 247 254 253 254
188 248 18 347 207 271 311 155 160 177 175 170 152 146 149 156 168 189 190 191 188 186 180 188 228 19 7 352 341 333 330 324 315 310 309 307 304 296 285 274 269 266 259 254 250 247 250 253 257
138 255 232 146 151 197 309 256 188 166 169 174 156 152 160 168 181 181 187 184 188 176 147 181 171 158 268 303 324 324 322 321 320 316 302 304 314 317 316 307 291 281 276 273 269 266 264 260 263
207 164 121 111 300 339 186 288 164 161 170 171 152 159 166 180 177 181 183 186 182 146 210 287 159 195 267 309 340 342 354 357 350 339 324 301 311 316 323 327 325 315 303 297 286 284 279 273 268
Wind_Speed_850mb
26 24 18 8 3 5 11 14 18 27 15 49 39 39 33 25 10 12 41 42 37 43 55 51 50 52 54 53 47 40 34 29 31 37 37 38 39 36 36 36 35 36 36 34 33 31 31 33 37
26 19 7 9 4 8 15 35 37 8 38 10 35 56 46 27 42 52 45 36 29 43 56 53 53 55 56 52 47 40 34 29 32 37 37 38 35 35 35 35 35 37 36 34 32 33 34 39 44
23 17 10 8 8 20 9 23 33 43 57 8 11 35 20 26 47 46 42 41 30 52 56 54 55 55 55 52 46 40 33 29 33 36 38 36 34 33 33 33 32 35 31 28 27 30 34 41 47
22 14 14 3 22 40 31 22 33 43 52 15 36 18 40 29 50 51 51 37 30 53 54 53 54 54 55 52 46 39 32 28 34 35 35 35 35 33 32 30 29 31 29 30 31 32 36 41 44
29 10 6 10 23 37 39 41 30 27 21 25 45 13 20 25 48 61 49 33 25 52 53 52 51 52 53 51 45 39 32 29 35 36 34 33 32 30 28 27 28 30 31 31 31 33 37 38 38
12 10 1 15 31 37 34 33 31 34 42 32 37 28 19 43 60 54 41 25 23 44 51 49 49 48 49 50 47 41 35 34 36 34 34 33 30 28 26 26 28 30 29 29 27 28 31 30 29
15 2 11 18 25 34 34 35 25 19 16 25 64 19 45 42 49 50 42 44 36 33 41 46 48 46 44 47 48 43 37 38 38 34 32 31 29 27 25 25 27 28 28 25 23 22 25 26 23
20 3 13 17 25 29 31 12 36 48 24 37 47 26 27 52 49 53 54 49 44 36 30 45 49 49 48 47 49 46 42 41 40 34 32 31 28 25 23 22 24 25 25 23 21 19 19 23 24
45 4 11 22 22 33 40 9 30 47 41 27 26 76 68 50 51 56 55 56 44 36 21 47 49 49 48 47 48 47 45 46 43 37 33 30 27 23 22 20 22 22 22 21 18 16 15 16 20
25 9 17 26 21 21 22 29 19 14 41 61 57 57 66 61 59 63 57 64 50 45 36 38 47 48 48 49 50 49 49 50 46 40 35 31 27 22 17 17 20 22 22 20 17 17 17 20 20
35 14 23 46 43 43 20 24 29 24 12 39 63 67 68 61 56 55 50 64 58 46 39 35 42 46 43 48 50 52 51 51 46 41 37 32 30 21 17 17 14 18 23 21 19 20 19 16 16
17 45 50 50 54 16 15 20 16 17 30 22 44 64 58 50 49 51 51 57 67 61 45 37 36 34 39 33 43 50 54 54 50 45 41 38 36 27 22 9 5 18 22 21 18 20 16 16 15
17 22 56 64 56 17 19 15 10 30 40 33 37 47 49 47 47 45 31 20 45 65 51 49 47 37 48 38 32 41 50 52 50 45 44 45 42 32 32 18 19 7 16 21 19 19 18 13 18
32 48 48 48 36 22 8 11 8 33 28 23 15 6 22 48 46 47 41 14 38 50 54 59 54 45 53 54 44 33 40 47 45 43 41 45 46 31 42 28 33 27 20 13 13 14 19 25 17
33 9 12 11 36 16 26 9 7 44 37 26 17 25 33 37 35 38 35 10 16 45 55 54 61 49 60 55 54 45 30 44 38 40 36 34 51 38 39 37 45 29 31 37 35 36 35 31 26
11 8 8 17 20 17 22 13 11 42 44 30 46 48 43 55 52 39 34 26 22 15 42 52 60 52 58 49 44 50 36 38 44 45 45 42 43 53 50 48 42 33 34 30 32 29 28 28 20
10 14 20 22 26 14 14 14 9 36 50 52 56 51 40 35 36 34 28 26 22 22 33 46 42 53 57 59 40 43 42 40 47 51 59 58 54 55 54 53 50 45 37 37 20 34 34 40 17
14 18 18 17 10 13 16 16 15 43 57 51 48 41 33 25 19 8 12 19 21 27 32 34 35 26 41 50 56 63 53 54 46 51 62 58 58 62 58 53 53 52 42 40 34 33 26 25 39
13 18 10 24 14 10 16 20 17 37 50 48 50 42 37 26 16 3 7 13 19 35 38 31 32 38 26 41 56 61 69 61 65 53 52 46 59 54 60 56 49 63 50 38 50 42 37 45 44
16 12 15 19 14 12 19 19 18 18 30 53 50 40 35 27 20 14 6 15 20 26 35 46 35 38 38 36 34 59 57 67 69 57 56 52 46 60 66 63 59 51 69 45 50 56 56 47 47
5 12 16 8 14 6 3 12 16 19 47 53 53 45 33 26 20 8 7 5 18 23 25 37 34 40 42 40 39 38 55 62 66 71 63 62 66 62 79 79 72 60 60 66 50 59 63 60 56
6 17 18 18 13 1 8 5 10 29 27 29 44 43 37 27 20 8 5 11 11 16 19 21 24 35 41 48 49 48 41 47 56 62 66 63 53 60 37 73 72 59 54 73 68 63 72 70 67
5 16 12 11 14 10 19 6 12 32 25 28 40 53 49 33 16 8 12 17 15 9 4 10 18 15 23 32 35 37 44 54 50 46 58 61 63 51 53 57 58 58 62 57 73 68 78 84 83
6 7 13 10 6 6 26 14 13 29 36 32 48 56 55 43 26 14 15 17 17 11 7 6 2 3 7 11 14 17 19 29 38 43 41 58 64 76 92 51 49 52 47 45 49 78 76 79 78
10 7 5 8 2 16 16 11 22 29 38 37 44 54 58 49 39 33 20 8 13 15 8 6 7 7 9 8 8 9 10 12 18 24 29 34 57 61 83 85 84 84 91 85 97 79 81 82 79
3 14 10 6 6 12 13 6 9 30 39 47 44 50 61 49 32 22 18 12 12 12 9 10 7 9 10 10 11 11 11 11 10 16 18 29 41 50 78 70 69 82 79 63 70 88 85 90 87
5 5 9 4 9 9 5 10 13 23 22 30 36 62 65 51 31 18 19 17 13 8 3 7 11 10 9 10 9 9 10 11 14 17 19 19 25 43 49 44 45 51 55 79 81 86 77 81 81
10 6 9 7 3 11 8 8 13 18 21 24 32 50 60 48 34 24 24 21 20 18 12 5 2 3 7 9 14 16 18 18 18 22 25 27 27 27 31 39 47 46 46 48 57 63 65 71 76
2 3 8 8 7 5 5 7 19 31 28 28 33 58 57 50 43 35 21 12 13 10 6 8 5 2 2 5 9 15 18 18 18 19 23 26 27 31 30 27 29 37 45 47 51 54 56 61 65
18 10 10 9 12 2 3 10 10 19 21 39 41 59 51 46 43 34 26 14 12 9 8 9 9 5 6 1 5 8 11 12 14 14 11 13 21 25 27 28 27 25 27 32 35 36 43 46 53
Wind_Direction_850mb
250 253 265 285 26 213 251 177 34 313 280 228 56 84 85 54 82 138 157 177 161 158 155 159 158 156 157 156 155 151 147 139 137 136 130 127 127 126 126 125 123 124 121 118 114 113 120 126 119
241 233 254 262 175 286 282 113 173 41 279 74 64 89 70 73 105 134 150 169 160 161 158 158 158 157 156 156 155 153 149 142 143 143 136 135 133 132 131 129 128 127 122 119 114 109 109 120 120
206 177 274 181 204 234 246 126 133 123 257 291 78 65 70 115 123 141 167 161 159 161 158 158 158 159 158 157 157 154 152 146 149 146 143 141 139 137 137 134 133 130 130 127 117 110 107 119 126
187 190 260 271 268 276 267 288 183 178 248 98 98 51 83 136 136 154 160 160 162 159 159 159 161 162 161 160 158 156 155 155 154 148 147 145 144 143 143 142 138 137 131 127 119 110 109 120 130
176 242 214 233 249 256 263 258 165 133 116 119 105 131 87 100 140 154 163 172 175 158 161 161 163 165 165 163 160 160 160 161 156 150 149 148 149 149 150 149 147 140 135 130 121 111 112 120 128
196 225 274 229 255 258 261 224 146 128 131 132 105 122 130 130 143 155 152 166 147 148 163 164 164 168 170 168 165 166 166 165 160 157 153 151 149 148 148 149 154 149 144 137 128 121 117 122 132
214 180 234 258 267 286 279 262 152 158 147 130 141 119 122 130 151 152 148 169 159 154 162 168 167 169 171 171 170 170 171 170 166 163 160 157 151 150 149 151 156 158 152 147 138 129 125 124 127
233 213 272 254 256 270 278 11 124 119 106 129 118 131 135 139 150 154 160 167 168 167 174 177 172 173 172 171 174 174 174 174 170 170 168 165 158 155 151 155 162 168 165 159 154 143 141 131 128
221 257 245 257 261 266 307 313 142 126 135 146 117 138 146 145 157 156 158 165 170 168 177 181 178 177 176 177 176 178 178 177 175 176 175 171 167 162 159 163 170 176 177 172 173 163 161 149 135
210 192 244 252 273 312 345 16 60 128 109 108 120 137 145 152 159 162 164 164 177 172 171 185 184 181 180 182 182 183 182 181 180 180 180 176 171 169 175 178 185 184 191 189 186 177 182 175 162
226 220 240 254 273 306 338 354 357 93 78 128 139 147 151 156 160 166 174 177 185 188 181 173 183 187 184 187 186 186 186 185 186 186 184 180 170 157 186 183 188 205 200 200 197 191 191 186 198
201 228 243 269 273 306 320 327 327 22 71 100 144 154 154 161 171 180 185 186 182 187 185 184 170 177 186 193 194 191 190 190 191 193 188 181 185 177 209 204 158 222 213 208 200 198 185 182 217
212 232 231 246 258 260 293 307 309 84 93 102 105 149 170 172 177 187 181 161 177 180 181 188 180 176 187 201 201 206 198 198 198 201 196 189 186 187 206 209 225 226 198 212 185 177 193 230 248
242 224 231 244 254 253 211 275 265 105 100 98 108 142 190 183 179 180 191 146 172 173 183 187 185 182 191 200 211 209 218 211 209 211 209 196 193 196 197 226 224 233 230 202 199 213 223 210 211
269 276 225 249 244 221 196 247 272 131 115 107 148 88 105 100 150 157 166 181 180 181 180 193 197 188 192 202 215 217 221 213 209 213 210 206 196 194 209 211 209 238 234 246 238 231 222 224 231
277 302 253 253 242 230 134 238 133 131 121 81 86 96 93 93 110 131 141 154 169 168 193 199 193 192 189 200 213 214 211 213 215 227 227 226 218 220 213 213 214 216 222 230 230 218 205 190 187
260 222 234 248 204 188 130 137 121 119 120 91 86 82 90 114 118 120 137 148 167 172 174 184 198 198 191 196 199 209 212 214 221 226 231 236 234 224 229 226 214 215 220 232 240 223 213 186 224
234 228 247 208 149 156 142 133 141 121 109 107 96 92 81 76 69 126 145 162 176 172 174 180 184 198 209 212 218 221 216 213 222 234 233 236 235 230 232 239 235 217 224 226 229 226 232 211 205
281 336 277 127 129 123 181 142 147 130 122 115 106 99 92 78 70 338 221 218 208 210 210 199 203 214 202 220 225 227 229 226 227 236 237 248 240 237 237 242 248 225 223 222 230 222 196 208 215
330 335 19 119 144 138 116 145 156 140 137 114 111 108 101 93 71 29 8 222 221 224 219 223 218 222 235 244 232 231 229 230 229 240 237 241 257 246 244 244 242 238 227 224 231 226 224 221 218
317 27 14 29 352 66 90 132 140 84 104 110 117 118 112 108 99 56 38 142 203 221 224 228 226 222 228 234 237 224 237 241 239 242 240 241 244 239 240 248 242 238 239 231 232 234 228 227 230
52 23 11 1 31 236 66 275 165 131 120 116 121 128 128 119 127 153 111 111 176 205 216 223 234 228 237 240 244 246 245 246 249 251 248 253 250 243 235 234 240 241 246 230 232 229 233 233 228
11 28 7 345 321 352 305 112 234 142 150 152 150 148 145 143 150 141 98 96 94 97 133 216 231 237 243 247 251 254 252 254 260 263 256 257 249 256 304 300 198 222 225 242 241 243 235 235 237
46 26 323 288 220 323 245 179 207 177 169 156 155 154 155 154 150 114 89 103 104 92 89 81 87 261 274 279 275 276 274 268 277 282 286 274 268 249 277 282 266 232 235 245 252 253 246 243 240
134 115 325 334 328 230 265 228 214 182 166 157 157 155 154 150 150 139 154 170 128 122 93 41 46 58 44 12 354 331 315 301 287 283 278 281 237 244 250 255 254 254 259 268 281 269 255 251 249
341 158 165 247 279 275 337 342 268 124 123 127 133 144 145 147 151 166 186 158 111 101 96 92 71 35 24 23 26 18 2 348 329 311 286 260 252 255 251 258 263 257 261 252 239 256 253 251 250
358 346 214 72 308 351 181 10 55 111 125 153 176 135 145 153 163 178 189 166 152 139 76 16 8 31 36 25 19 15 1 339 327 318 313 302 280 266 265 268 258 251 251 236 251 247 254 253 254
188 248 18 347 207 271 311 155 160 177 175 170 152 146 149 156 168 189 190 191 188 186 180 188 228 19 7 352 341 333 330 324 315 310 309 307 304 296 285 274 269 266 259 254 250 247 250 253 257
138 255 232 146 151 197 309 256 188 166 169 174 156 152 160 168 181 181 187 184 188 176 147 181 171 158 268 303 324 324 322 321 320 316 302 304 314 317 316 307 291 281 276 273 269 266 264 260 263
207 164 121 111 300 339 186 288 164 161 170 171 152 159 166 180 177 181 183 186 182 146 210 287 159 195 267 309 340 342 354 357 350 339 324 301 311 316 323 327 325 315 303 297 286 284 279 273 268